OPS 4682 DEB, 38443

Orbit data source: Space-Track

OPS 4682 DEB, 38443 is space debris in LEO originally from a launch on Sat, 03 Apr 1965 UTC launched from the Air Force Western Test Range (AFWTR). Debris objects in space refer to the collection of defunct objects orbiting the Earth. Examples of debris include non-operational satellites, rocket bodies, and fragments generated from explosions, collisions, or faulty payload assembly.

Loading next visibility...
Identifier
38443, 1965-027EY
Orbit
LEO
Country
Flag of USUS
Related business
Manufacturer
Unknown
Mission
Spacecraft
Bus & Motor
Unknown
Mass
Unknown
Launch date (UTC)
1965-04-03 (61 years ago)
Launch vehicle
Unknown
Launch site
Air Force Western Test Range (AFWTR)
Object type
Payload
Rocket body
Debris
Shape & HBR
Unknown shape, 0.1 m
Radar Cross Section
Small (<0.1 m²)

Expand to show TLE details & history
Last TLE update: 2 days ago

TLE from 2 days ago
0 OPS 4682 DEB
1 38443U 65027EY  26034.60886684 -.00000281  00000-0 -94565-3 0  9998
2 38443  90.2373   0.1751 0026964 237.1881 122.6644 13.00834108534453
Epoch: 2026-02-03T14:36Z
TLE epoch observation values (Epoch: 2026-02-03T14:36:46.094Z)
Latitude
-0.00009°
Longitude
7.19569°
Altitude
1,272.861 km
Speed
7.214 km/s
True Right ascension
00h 00m 42s
True Declination
0° 00' 00"
Sunlit
Object was in daylight at epoch
Visualization orbit readout
Latitude
Unknown
Longitude
Unknown
Altitude
Unknown
Speed
Unknown
Apparent Right ascension
Unknown
Apparent Declination
Unknown
Sunlit
N/A
Visualization observer readout
Local Sidereal Time
07:14:15
Azimuth
Unknown
Elevation
Unknown
Doppler factor
Unknown
Orbital elements
Apogee altitude
1,276.531 km
Perigee altitude
1,235.361 km
Semi-major axis
7,634.083 km
Eccentricity
0.0027
Inclination
90.2373°
RAAN
0.1751°
Arg. of periapsis
237.1881°
True anomaly
122.92404°
Mean anomaly
122.6644°
Eccentric anomaly
122.79427°
Mean motion
3.25393 °/min
Orbital period
110.64 mins
BSTAR
-0.00094565
Loading maneuver chart data...
Computing Atmospheric mass density...
Loading historical data...
Loading historical data...
Loading historical data...
Loading historical data...
Loading historical data...
Loading historical data...
Loading historical data...

Documentation

Showing up to 5 results
|